Regional Weather Roundup
Issued by NWS

Home | Current Version | Previous Version | Text Only | Print | Product List | Glossary On
Versions: 1 2 3 4 5 6 7 8 9 10 11 12 13 14 15 16 17 18 19 20 21 22 23 24 25 26 27 28 29 30 31 32 33 34 35 36 37 38 39 40 41 42 43 44 45 46 47 48 49 50
000
ASUS43 KLMK 302110
RWRKY
KENTUCKY REGIONAL WEATHER ROUNDUP
NATIONAL WEATHER SERVICE LOUISVILLE KY
500 PM EDT FRI SEP 30 2016

NOTE "FAIR" INDICATES FEW OR NO CLOUDS BELOW 12,000 FEET
WITH NO SIGNIFICANT WEATHER AND/OR OBSTRUCTIONS TO VISIBILITY.

KYZ001>023-026-027-061>063-070>075-302200-
WESTERN AND SOUTH CENTRAL KENTUCKY

CITY           SKY/WX    TMP DP  RH WIND       PRES   REMARKS
PADUCAH        CLOUDY    67  59  75 W8        30.00F
HENDERSON      CLOUDY    68  54  60 NW8       29.98R
OWENSBORO      NOT AVBL
HOPKINSVILLE   CLOUDY    62  60  92 W6        30.02S
BOWLING GREEN  LGT RAIN  64  58  80 SW7       30.00F
GLASGOW        LGT RAIN  64  57  78 SW6       30.00F
$$

KYZ024-025-028>034-038-045-046-053-302200-
NORTH CENTRAL KENTUCKY

CITY           SKY/WX    TMP DP  RH WIND       PRES   REMARKS
LOUISVILLE/SDF PTSUNNY   61  54  77 S6        30.01S
LOUISVILLE/LOU CLOUDY    60  53  77 SW3       30.02R
FORT KNOX      CLOUDY    58  54  86 SE2       29.99S
$$

KYZ035>037-039>044-047>052-055>060-089>105-302200-
NORTHEAST KENTUCKY

CITY           SKY/WX    TMP DP  RH WIND       PRES   REMARKS
LEXINGTON      CLOUDY    63  49  60 SW8       30.02S
COVINGTON      PTSUNNY   67  54  63 S8        29.99S
FRANKFORT      PTSUNNY   64  46  52 VRB6      30.00S
$$

KYZ054-064>069-076>088-106>120-302200-
SOUTHEAST KENTUCKY

CITY           SKY/WX    TMP DP  RH WIND       PRES   REMARKS
JACKSON        MOSUNNY   66  50  56 CALM      30.03R
LONDON         SUNNY     65  46  50 SW9       30.03S
SOMERSET       CLOUDY    61  50  67 W9        30.04S
MIDDLESBORO    PTSUNNY   66  52  59 N3        30.02F
MONTICELLO     MOCLDY    63  53  70 SW9G20    30.05S
$$





USA.gov is the U.S. government's official web portal to all federal, state and local government web resources and services.